Regional Weather Roundup
Issued by NWS

Home | Current Version | Previous Version | Graphics & Text | Print | Product List | Glossary On
Versions: 1 2 3 4 5 6 7 8 9 10 11 12 13 14 15 16 17 18 19 20 21 22 23 24 25 26 27 28 29 30 31 32 33 34 35 36 37 38 39 40 41 42 43 44 45 46 47 48 49 50
000
ASUS45 KABQ 300001
RWRNM
WEATHER ROUNDUP FOR NEW MEXICO
NATIONAL WEATHER SERVICE ALBUQUERQUE NM
600 PM MDT FRI AUG 29 2014

NOTE: "FAIR" MEANS FEW OR NO CLOUDS BELOW 12,000 FEET AGL WITH NO
       SIGNIFICANT WEATHER OR OBSTRUCTIONS TO VISION.

      THIS PRODUCT IS RELEASED AS TWO VERSIONS.  ONE VERSION NEAR
      THE TOP OF THE HOUR CONTAINING PRELIMINARY DATA FROM ALBUQUERQUE
      AND OTHER STATIONS.  A FINAL VERSION WITH ADDITIONAL DATA IS
      ISSUED ABOUT 10 MINUTES AFTER THE HOUR.

NMZ501-503-504-510>518-300100-
NORTHWEST PLATEAU/NORTHCENTRAL MOUNTAINS

CITY           SKY/WX    TMP DP  RH WIND       PRES   REMARKS
FARMINGTON     SUNNY     82  37  20 SW8       30.08F
6HR MIN TEMP:  75; 6HR MAX TEMP:  83;

LOS ALAMOS     SUNNY     74  35  23 SE7       30.23S
SANTA FE       SUNNY     80  36  20 W5        30.15S
6HR MIN TEMP:  73; 6HR MAX TEMP:  80;

ANGEL FIRE     FAIR      70  31  23 S6        30.30R

$$
NMZ402-403-502-505>509-300100-
WESTCENTRAL MOUNTAINS/SOUTHWEST MOUNTAINS

CITY           SKY/WX    TMP DP  RH WIND       PRES   REMARKS
GALLUP         SUNNY     83  34  17 NE10      30.15F
6HR MIN TEMP:  76; 6HR MAX TEMP:  84;

SILVER CITY    SUNNY     86  37  17 S3        30.08F

$$
NMZ407-409-411-412-300100-
SOUTHERN DESERTS

CITY           SKY/WX    TMP DP  RH WIND       PRES   REMARKS
LORDSBURG      FAIR      91  41  17 W10       29.98S
DEMING         SUNNY     93  39  15 N5        29.97S
6HR MIN TEMP:  89; 6HR MAX TEMP:  94;

LAS CRUCES     SUNNY     91  39  16 SE6       30.00F
HOLLOMAN AFB   SUNNY     91  40  16 NW6       29.96F
ALAMOGORDO     SUNNY     90  37  15 CALM      29.98F
T OR C         SUNNY     88  41  19 E6        30.02F
6HR MIN TEMP:  83; 6HR MAX TEMP:  90;


$$
NMZ519>523-300100-
CENTRAL VALLEYS/CENTRAL HIGHLANDS

CITY           SKY/WX    TMP DP  RH WIND       PRES   REMARKS
ALBUQUERQUE    MOSUNNY   85  37  18 N3        30.09S
6HR MIN TEMP:  78; 6HR MAX TEMP:  85;

DOUBLE EAGLE   MOSUNNY   81  37  21 VRB5      30.12F
CLINES CORNERS SUNNY     76  40  27 W8        30.20S
6HR MIN TEMP:  70; 6HR MAX TEMP:  77;

BELEN          FAIR      84  37  19 E6        30.08S
6HR MIN TEMP:  77; 6HR MAX TEMP:  85;

SOCORRO        FAIR      86  39  19 W3        30.04F
6HR MIN TEMP:  80; 6HR MAX TEMP:  87;


$$
NMZ524>526-539-540-300100-
SOUTHCENTRAL MOUNTAINS

CITY           SKY/WX    TMP DP  RH WIND       PRES   REMARKS
RUIDOSO        NOT AVBL

$$
NMZ527>531-300100-
NORTHEAST HIGHLANDS/NORTHEAST PLAINS

CITY           SKY/WX    TMP DP  RH WIND       PRES   REMARKS
LAS VEGAS      MOSUNNY   76  39  26 S13       30.18S
6HR MIN TEMP:  72; 6HR MAX TEMP:  79;

RATON          PTSUNNY   77  32  19 CALM      30.14R
6HR MIN TEMP:  76; 6HR MAX TEMP:  82;

CLAYTON        SUNNY     83  41  22 NE9       30.07R
6HR MIN TEMP:  81; 6HR MAX TEMP:  86;


$$
NMZ532>537-300100-
EASTCENTRAL PLAINS

CITY           SKY/WX    TMP DP  RH WIND       PRES   REMARKS
TUCUMCARI      SUNNY     89  27  10 W5        29.99S
6HR MIN TEMP:  83; 6HR MAX TEMP:  91;

CANNON AFB     SUNNY     87  37  17 VRB6      30.02S
6HR MIN TEMP:  82; 6HR MAX TEMP:  89;

CLOVIS AIRPORT   N/A     88  36  15 NW7       30.03S

$$
NMZ028-029-538-300100-
SOUTHEAST PLAINS

CITY           SKY/WX    TMP DP  RH WIND       PRES   REMARKS
ROSWELL        SUNNY     91  50  24 CALM      29.96F
6HR MIN TEMP:  82; 6HR MAX TEMP:  92;

CARLSBAD       SUNNY     94  43  17 NW9       29.92S
6HR MIN TEMP:  83; 6HR MAX TEMP:  96;

HOBBS          SUNNY     90  48  24 CALM      29.97S


$$



USA.gov is the U.S. government's official web portal to all federal, state and local government web resources and services.